TimeEDT,TemperatureF,Dew PointF,Humidity,Sea Level PressureIn,VisibilityMPH,Wind Direction,Wind SpeedMPH,Gust SpeedMPH,PrecipitationIn,Events,Conditions,WindDirDegrees,DateUTC
12:15 AM,43.7,18.9,37,30.27,10.0,Calm,Calm,-,N/A,,Clear,0,2013-04-23 04:15:00
12:35 AM,43.2,19.9,40,30.27,10.0,Calm,Calm,-,N/A,,Clear,0,2013-04-23 04:35:00
12:55 AM,43.0,20.7,41,30.27,10.0,Calm,Calm,-,N/A,,Clear,0,2013-04-23 04:55:00
1:15 AM,42.3,21.0,43,30.27,10.0,Calm,Calm,-,N/A,,Clear,0,2013-04-23 05:15:00
1:35 AM,42.3,22.3,45,30.28,10.0,Calm,Calm,-,N/A,,Clear,0,2013-04-23 05:35:00
1:55 AM,41.9,23.5,48,30.27,10.0,Calm,Calm,-,N/A,,Clear,0,2013-04-23 05:55:00
2:15 AM,41.4,23.7,50,30.26,10.0,Calm,Calm,-,N/A,,Clear,0,2013-04-23 06:15:00
2:55 AM,41.4,24.1,50,30.25,10.0,Calm,Calm,-,N/A,,Clear,0,2013-04-23 06:55:00
3:35 AM,39.2,25.2,57,30.24,10.0,Calm,Calm,-,N/A,,Clear,0,2013-04-23 07:35:00
4:15 AM,37.2,25.3,62,30.24,10.0,Calm,Calm,-,N/A,,Clear,0,2013-04-23 08:15:00
4:35 AM,38.7,25.2,58,30.24,10.0,Calm,Calm,-,N/A,,Clear,0,2013-04-23 08:35:00
4:55 AM,37.8,25.5,61,30.24,10.0,Calm,Calm,-,N/A,,Clear,0,2013-04-23 08:55:00
5:15 AM,38.3,25.7,61,30.23,10.0,Calm,Calm,-,N/A,,Clear,0,2013-04-23 09:15:00
5:35 AM,37.2,25.3,62,30.22,10.0,Calm,Calm,-,N/A,,Clear,0,2013-04-23 09:35:00
5:55 AM,37.8,25.5,61,30.22,10.0,Calm,Calm,-,N/A,,Clear,0,2013-04-23 09:55:00
6:15 AM,37.6,25.9,63,30.22,10.0,Calm,Calm,-,N/A,,Clear,0,2013-04-23 10:15:00
6:35 AM,37.6,27.0,66,30.21,10.0,Calm,Calm,-,N/A,,Clear,0,2013-04-23 10:35:00
6:55 AM,37.2,28.4,70,30.22,10.0,Calm,Calm,-,N/A,,Clear,0,2013-04-23 10:55:00
7:15 AM,32.5,26.1,77,30.22,10.0,Calm,Calm,-,N/A,,Clear,0,2013-04-23 11:15:00
7:35 AM,35.8,27.1,71,30.22,10.0,Calm,Calm,-,N/A,,Clear,0,2013-04-23 11:35:00
7:55 AM,35.6,28.4,75,30.23,10.0,Calm,Calm,-,N/A,,Clear,0,2013-04-23 11:55:00
8:15 AM,36.5,29.3,75,30.22,10.0,Calm,Calm,-,N/A,,Clear,0,2013-04-23 12:15:00
8:35 AM,39.2,28.6,66,30.23,10.0,Calm,Calm,-,N/A,,Clear,0,2013-04-23 12:35:00
8:55 AM,40.3,30.2,67,30.24,10.0,Calm,Calm,-,N/A,,Clear,0,2013-04-23 12:55:00
9:15 AM,44.1,31.6,62,30.24,10.0,Calm,Calm,-,N/A,,Clear,0,2013-04-23 13:15:00
9:35 AM,45.9,34.0,63,30.25,10.0,Calm,Calm,-,N/A,,Clear,0,2013-04-23 13:35:00
9:55 AM,46.4,34.9,64,30.24,10.0,ESE,4.6,-,N/A,,Clear,110,2013-04-23 13:55:00
10:15 AM,48.4,35.8,62,30.24,10.0,SSE,3.5,-,N/A,,Clear,160,2013-04-23 14:15:00
10:35 AM,50.0,37.0,61,30.24,10.0,Calm,Calm,-,N/A,,Clear,0,2013-04-23 14:35:00
10:55 AM,51.1,37.0,59,30.24,10.0,ESE,4.6,-,N/A,,Clear,110,2013-04-23 14:55:00
11:15 AM,53.1,37.4,55,30.24,10.0,Calm,Calm,-,N/A,,Clear,0,2013-04-23 15:15:00
11:35 AM,54.1,37.9,54,30.23,10.0,ESE,4.6,-,N/A,,Clear,110,2013-04-23 15:35:00
11:55 AM,54.9,34.9,47,30.23,10.0,Calm,Calm,-,N/A,,Clear,0,2013-04-23 15:55:00
12:15 PM,56.7,34.5,43,30.23,10.0,Calm,Calm,-,N/A,,Clear,0,2013-04-23 16:15:00
12:35 PM,58.6,36.3,43,30.21,10.0,SE,3.5,-,N/A,,Clear,130,2013-04-23 16:35:00
12:55 PM,59.9,36.0,41,30.21,10.0,SE,4.6,-,N/A,,Clear,130,2013-04-23 16:55:00
1:15 PM,60.6,36.7,41,30.19,10.0,East,5.8,-,N/A,,Clear,80,2013-04-23 17:15:00
1:35 PM,60.6,33.1,36,30.19,10.0,Calm,Calm,-,N/A,,Clear,0,2013-04-23 17:35:00
1:55 PM,62.2,36.0,38,30.18,10.0,SE,3.5,-,N/A,,Clear,140,2013-04-23 17:55:00
2:15 PM,62.1,36.5,39,30.18,10.0,SE,5.8,-,N/A,,Clear,140,2013-04-23 18:15:00
2:35 PM,63.0,35.6,36,30.17,10.0,SE,8.1,-,N/A,,Clear,140,2013-04-23 18:35:00
2:55 PM,62.8,35.8,37,30.17,10.0,SE,5.8,-,N/A,,Clear,130,2013-04-23 18:55:00
3:15 PM,63.9,36.9,37,30.16,10.0,SE,4.6,-,N/A,,Clear,140,2013-04-23 19:15:00
4:15 PM,63.5,38.8,40,30.14,10.0,SSE,5.8,-,N/A,,Clear,150,2013-04-23 20:15:00
4:35 PM,63.0,37.9,40,30.14,10.0,SE,6.9,-,N/A,,Clear,130,2013-04-23 20:35:00
4:55 PM,63.0,37.0,38,30.13,10.0,SE,5.8,-,N/A,,Clear,130,2013-04-23 20:55:00
5:15 PM,62.6,37.4,39,30.13,10.0,SE,5.8,-,N/A,,Clear,140,2013-04-23 21:15:00
5:55 PM,62.4,35.6,37,30.13,10.0,SSE,6.9,-,N/A,,Clear,160,2013-04-23 21:55:00
6:15 PM,61.9,36.9,39,30.13,10.0,SSE,4.6,-,N/A,,Clear,160,2013-04-23 22:15:00
6:55 PM,59.5,38.7,46,30.13,10.0,SE,4.6,-,N/A,,Clear,140,2013-04-23 22:55:00
7:15 PM,59.2,39.0,47,30.14,10.0,SE,5.8,-,N/A,,Clear,140,2013-04-23 23:15:00
7:35 PM,58.3,39.9,50,30.14,10.0,SSE,3.5,-,N/A,,Clear,150,2013-04-23 23:35:00
7:55 PM,57.2,40.6,54,30.14,10.0,SSE,4.6,-,N/A,,Clear,150,2013-04-23 23:55:00
8:15 PM,56.7,40.5,55,30.14,10.0,SSE,3.5,-,N/A,,Clear,150,2013-04-24 00:15:00
8:35 PM,54.7,40.5,59,30.13,10.0,SSE,4.6,-,N/A,,Clear,160,2013-04-24 00:35:00
8:55 PM,54.3,40.3,59,30.14,10.0,South,4.6,-,N/A,,Clear,180,2013-04-24 00:55:00
9:15 PM,54.7,40.1,58,30.14,10.0,SSE,3.5,-,N/A,,Clear,160,2013-04-24 01:15:00
9:35 PM,54.0,40.1,59,30.15,10.0,SSE,3.5,-,N/A,,Clear,160,2013-04-24 01:35:00
9:55 PM,53.4,40.3,61,30.15,10.0,SSE,3.5,-,N/A,,Clear,160,2013-04-24 01:55:00
10:15 PM,52.9,41.0,64,30.15,10.0,South,3.5,-,N/A,,Clear,170,2013-04-24 02:15:00
10:35 PM,52.3,41.2,66,30.15,10.0,Calm,Calm,-,N/A,,Clear,0,2013-04-24 02:35:00
10:55 PM,52.0,41.4,67,30.15,10.0,SSE,3.5,-,N/A,,Clear,160,2013-04-24 02:55:00
11:15 PM,52.2,41.5,67,30.15,10.0,Calm,Calm,-,N/A,,Clear,0,2013-04-24 03:15:00
11:35 PM,52.2,41.9,68,30.15,10.0,Calm,Calm,-,N/A,,Clear,0,2013-04-24 03:35:00
11:55 PM,52.2,42.1,69,30.15,10.0,Calm,Calm,-,N/A,,Clear,0,2013-04-24 03:55:00